Theta_e
306 307 307 307 306 304 302 301 300 300 300 300 300 300 301 302 302 303 303 302 303 303 303 304 305 306 306 306 306 307 307 308 313 316 320 322 316 315 319 320 320 319 317 324 335 334 332 332 331 334 339 346 349 354 354 353 350 350 361 362 355 360 358 356 356 350 349 351 351 353 355 352 353 352 348 348 350 351 352 353 351 352 353 352 352 351 352 353
309 309 309 308 306 304 303 303 302 301 301 300 300 301 301 302 302 303 303 303 304 303 303 304 305 307 309 309 308 308 309 312 317 319 322 318 317 317 316 316 317 319 321 323 330 335 333 332 332 335 338 344 349 352 352 352 351 350 358 359 356 361 360 355 354 351 350 351 348 349 350 350 351 350 349 351 351 350 351 353 353 355 354 352 352 351 352 353
310 309 308 307 306 307 306 306 304 302 301 300 301 302 302 302 303 303 303 303 303 303 304 304 306 310 312 312 310 310 312 316 321 324 325 321 321 318 316 317 316 319 322 322 326 330 334 333 333 334 337 343 346 349 352 351 351 350 353 360 359 356 355 353 350 349 348 349 349 349 347 349 349 349 351 350 349 352 353 354 356 357 355 353 352 351 353 352
309 308 308 308 307 306 305 304 303 302 301 301 301 301 302 302 303 303 304 304 303 304 303 305 309 312 315 315 312 312 316 322 328 327 323 323 324 320 318 316 316 321 322 321 323 327 329 332 333 334 335 340 343 347 352 350 347 349 351 353 354 353 355 353 348 348 346 348 348 347 348 349 348 350 352 349 351 354 353 353 355 356 354 353 352 351 352 351
306 306 308 307 305 304 303 304 303 302 301 301 301 301 301 302 303 304 305 304 304 304 303 308 312 314 316 314 312 314 319 329 329 324 320 322 324 322 318 316 317 319 323 322 323 325 327 329 331 333 334 338 342 347 351 348 344 347 350 349 349 353 354 351 348 347 346 348 347 348 350 348 347 351 353 350 353 354 352 352 352 352 352 352 351 351 351 350
306 307 307 305 304 304 304 303 302 301 301 300 300 301 302 302 303 304 305 306 305 304 304 310 315 316 316 313 313 316 323 327 325 323 320 321 324 323 319 316 315 319 322 323 324 325 325 327 329 332 335 337 342 348 349 346 345 346 348 347 347 352 351 348 346 347 347 347 347 348 349 348 348 352 353 350 351 351 349 350 351 350 350 350 350 350 350 350
307 306 305 304 304 303 302 302 301 301 301 301 301 301 302 302 304 305 306 307 307 304 305 312 316 316 315 313 315 319 322 324 324 324 324 322 322 322 321 317 318 323 324 323 323 323 324 327 330 333 334 337 341 346 347 345 344 345 347 347 347 350 348 347 347 348 348 347 347 347 346 346 348 349 350 349 349 349 348 351 350 349 349 350 350 350 349 350
304 303 303 303 302 302 302 301 301 301 301 301 301 301 302 303 304 306 308 308 308 305 307 313 317 316 314 315 320 322 320 323 323 323 324 324 323 321 322 323 323 325 324 322 321 322 323 327 331 334 336 338 342 345 346 345 344 344 346 346 346 348 346 347 347 346 348 347 346 347 346 346 346 346 347 349 350 349 349 351 349 349 349 349 349 349 349 351
302 302 302 302 301 302 301 301 301 301 301 301 301 302 302 304 305 308 308 309 309 307 309 315 317 317 315 316 323 322 322 324 322 324 323 324 323 319 322 324 325 325 323 321 321 321 323 327 331 334 337 340 342 343 344 343 344 344 346 346 346 346 345 346 346 346 348 346 347 348 346 345 344 346 346 348 348 348 350 350 350 350 349 350 348 349 349 351
302 301 301 301 301 301 301 301 301 301 302 301 302 302 303 305 307 308 309 310 310 308 310 316 317 318 317 318 322 321 324 322 323 326 323 325 323 319 322 323 324 324 322 321 321 321 321 326 332 335 336 338 340 342 342 340 341 341 344 346 344 345 344 345 346 347 347 346 347 347 346 344 342 345 347 347 347 348 351 351 351 350 350 350 348 349 349 351
301 301 301 301 301 301 301 301 301 301 302 301 302 303 305 307 308 309 309 310 310 309 313 317 317 318 319 321 321 321 322 323 325 327 326 327 321 320 323 323 324 323 323 321 321 322 321 325 333 336 335 336 338 340 340 339 338 339 341 343 344 345 344 344 346 347 348 348 347 348 346 343 340 344 349 348 347 349 351 351 351 351 351 350 349 349 350 351
301 301 301 301 301 301 301 301 301 301 301 302 303 305 307 308 309 310 310 312 310 310 315 318 317 319 321 321 321 321 320 322 324 325 326 327 323 321 322 324 325 323 323 322 322 323 322 325 332 335 335 335 338 338 340 340 338 338 337 341 341 343 344 343 344 344 349 348 347 348 343 342 341 342 346 348 346 348 350 351 352 352 351 351 350 351 351 350
301 301 301 301 301 301 301 301 301 301 301 303 305 307 308 309 310 311 312 313 311 311 317 317 317 320 322 323 322 319 318 321 323 323 323 325 326 324 323 324 326 324 323 322 323 324 324 326 332 336 333 335 337 338 340 338 339 339 339 339 341 339 342 343 342 342 346 346 347 345 333 335 341 342 346 348 346 348 349 350 351 351 351 351 351 351 351 350
302 301 301 301 301 301 301 301 301 301 302 304 306 308 310 311 312 312 313 313 311 313 317 317 319 322 322 324 323 317 318 319 322 325 324 324 325 325 325 325 325 324 323 324 326 327 327 329 333 334 332 333 335 336 339 337 337 339 337 338 339 333 334 344 341 341 344 343 345 343 329 332 340 339 345 348 345 349 349 350 349 351 351 351 351 350 350 351
302 302 302 301 301 301 301 301 301 301 303 305 307 309 311 312 314 314 315 314 313 315 316 317 319 323 325 325 323 319 321 322 324 324 324 326 325 326 325 324 326 325 323 324 326 329 331 332 333 334 332 331 332 333 337 337 336 337 331 328 335 332 332 343 341 339 344 342 344 341 329 334 340 340 346 346 345 348 348 349 349 350 350 350 350 350 351 350
302 302 301 301 301 301 301 301 301 302 303 306 309 311 312 313 315 316 315 314 317 318 317 320 322 323 328 328 324 321 326 328 327 323 324 327 325 325 325 325 326 325 325 325 326 328 330 332 333 331 330 328 329 332 334 331 330 336 331 322 327 330 331 338 340 339 341 340 342 340 334 337 338 341 345 345 346 348 347 349 348 349 350 350 351 351 351 350
302 302 302 301 301 301 301 301 301 302 304 306 310 312 313 313 315 316 316 318 321 320 319 322 324 324 327 327 324 325 325 328 326 323 326 326 325 327 325 324 324 326 327 326 326 328 328 330 329 327 327 326 328 330 327 321 320 328 331 324 325 330 330 331 336 339 338 338 341 342 339 339 338 342 345 344 347 347 348 348 348 349 349 350 352 352 351 351
302 302 302 301 301 301 301 301 302 303 305 307 310 311 313 314 314 317 317 322 326 324 323 323 324 326 328 326 328 327 325 327 327 326 326 325 324 324 325 325 324 324 325 325 327 327 327 330 328 326 326 324 327 327 322 319 321 322 324 322 322 326 327 328 332 336 337 338 339 340 338 339 341 344 345 345 346 346 348 349 347 349 349 350 352 352 351 351
302 302 302 301 301 301 301 301 302 305 306 308 310 312 313 313 315 320 321 320 320 320 323 325 326 327 324 324 325 325 326 326 327 326 324 324 324 324 325 325 324 324 325 325 326 326 328 330 329 326 323 323 326 326 323 325 327 328 328 324 321 321 324 330 335 335 337 337 338 340 337 338 340 342 346 346 346 347 348 349 348 349 349 350 352 352 352 352
302 302 302 302 301 301 301 301 302 306 307 307 310 312 313 310 312 316 316 312 311 312 313 315 319 320 317 318 318 320 323 322 323 326 325 324 323 323 324 326 326 325 326 325 325 326 327 329 328 326 325 326 326 326 327 327 329 332 331 327 323 322 322 331 335 335 335 336 336 341 339 339 341 341 347 345 345 349 348 350 350 349 350 350 351 353 351 353
302 302 302 301 301 301 301 301 304 307 308 308 311 312 311 307 308 310 310 309 310 311 311 311 312 312 312 313 314 316 317 317 319 322 325 325 323 323 325 329 331 327 327 326 326 327 327 326 327 329 330 328 327 327 326 326 328 329 329 325 323 322 324 332 335 334 336 335 334 341 341 340 340 341 346 345 346 350 351 351 351 351 350 350 351 352 352 353
302 302 302 301 302 301 301 302 305 309 309 311 314 313 309 308 309 308 309 310 311 311 311 312 312 312 312 312 314 314 314 315 316 318 323 324 323 325 327 331 332 330 329 328 329 329 327 325 327 330 331 329 329 328 326 326 328 328 328 325 321 323 326 330 334 335 335 334 334 340 337 337 341 340 345 345 344 350 350 350 351 350 352 352 351 352 353 353
302 302 302 302 302 302 302 304 307 310 311 314 316 311 308 309 308 309 310 310 310 311 311 312 312 312 312 312 314 313 313 315 315 317 321 323 324 324 325 326 329 330 330 330 331 327 322 326 328 329 330 332 330 329 328 327 326 327 328 323 319 324 323 320 328 335 336 333 336 340 336 337 340 339 345 345 343 348 350 350 350 348 351 353 351 351 353 355
302 302 302 302 302 302 302 305 308 310 312 314 313 309 309 309 308 309 310 309 310 311 312 313 313 312 313 313 314 313 312 314 316 318 321 322 324 323 322 324 326 327 329 330 331 327 325 328 329 328 331 332 330 330 331 327 324 327 329 325 322 325 323 321 328 334 332 333 337 337 328 329 338 339 343 346 343 348 349 349 350 349 352 351 350 353 352 354
302 302 302 302 302 303 304 307 309 310 312 314 310 309 309 308 309 310 309 311 312 314 316 316 314 313 314 315 314 313 312 314 315 317 321 322 323 322 322 322 324 327 329 329 329 328 328 330 330 330 330 332 331 331 331 328 323 323 328 331 327 326 327 326 329 329 323 322 333 334 319 322 336 337 340 345 342 346 349 350 350 351 353 352 351 353 354 354
302 302 302 302 302 303 305 308 309 309 312 313 309 309 309 308 309 308 309 313 315 320 319 318 316 314 314 315 315 314 313 314 316 317 321 322 322 323 322 322 324 326 328 331 330 329 329 330 330 329 329 330 330 330 331 332 323 319 327 332 331 330 327 326 326 321 315 318 331 333 322 320 329 331 341 345 342 346 349 348 349 352 352 351 352 354 354 355
302 302 302 302 303 305 307 308 308 310 313 311 309 309 309 309 309 309 312 317 321 323 319 318 317 314 313 316 316 313 312 314 318 317 319 323 323 322 322 324 322 322 326 329 325 327 330 331 330 329 328 327 327 327 330 332 322 318 327 329 329 328 326 327 325 318 318 322 329 331 326 321 320 329 341 344 342 348 349 347 348 351 352 351 353 353 354 354
302 302 302 303 304 306 308 309 310 312 313 310 308 309 309 309 309 310 315 320 323 318 317 317 317 314 314 317 315 313 314 316 318 318 320 322 322 321 321 323 322 321 325 325 320 325 332 331 331 330 328 325 326 327 329 329 324 322 328 329 328 327 327 328 324 319 319 320 318 323 324 320 318 329 343 340 339 345 349 347 349 352 353 353 353 353 352 352
303 302 303 304 305 308 310 311 312 313 311 309 308 308 308 309 310 311 318 324 322 314 318 316 316 315 314 316 316 313 315 317 317 319 319 322 323 323 321 320 322 322 322 323 322 326 330 330 330 329 326 325 326 329 327 326 325 325 327 327 328 329 327 329 324 318 318 317 314 317 319 317 317 325 335 333 332 341 349 348 349 354 354 354 353 352 351 351
304 303 303 305 307 309 310 312 313 312 310 308 307 308 309 310 311 313 319 324 318 312 317 314 314 314 313 316 316 314 314 315 317 318 319 320 322 323 322 320 321 321 321 322 322 324 327 328 329 328 326 326 327 328 328 326 326 326 327 327 327 327 327 328 324 319 315 314 314 316 317 316 317 322 328 330 330 341 352 351 352 356 354 353 353 352 351 352
304 304 304 306 307 309 310 312 312 311 309 307 307 308 309 310 312 313 316 318 312 312 313 311 311 312 311 313 315 316 317 315 316 318 319 320 321 324 324 321 319 320 319 319 319 323 324 325 329 328 326 327 327 328 329 328 327 327 329 326 320 320 321 319 318 317 314 312 313 316 318 314 313 320 331 337 336 341 351 354 356 355 354 353 353 353 353 354
305 304 305 307 309 310 312 312 311 311 309 307 308 309 309 311 312 312 313 312 311 311 310 310 310 310 311 312 314 317 319 318 318 317 319 320 320 323 324 322 320 317 314 315 316 320 322 324 326 327 327 327 326 325 327 328 328 328 328 320 315 315 315 314 314 313 312 312 313 317 317 312 313 323 336 341 340 339 346 351 355 355 354 354 354 355 354 353
306 305 307 310 311 313 314 313 311 310 307 306 308 309 310 311 311 311 310 310 310 310 310 310 310 310 311 312 313 316 319 321 320 319 320 319 320 322 324 324 323 319 316 315 314 313 317 323 325 326 328 327 326 323 320 322 326 326 322 315 313 314 314 315 315 313 312 312 314 317 317 312 312 322 336 341 339 338 338 347 355 353 354 355 355 355 354 352
306 306 309 311 313 315 314 314 312 308 307 308 309 309 310 311 311 310 310 310 310 310 310 310 310 310 312 312 314 315 316 317 318 319 321 320 319 319 322 325 324 324 321 317 314 313 313 318 323 324 325 326 327 324 323 325 324 325 326 322 316 314 313 314 313 311 314 314 312 314 313 310 310 322 335 339 338 336 336 349 355 352 352 355 354 353 352 352
306 308 310 312 314 315 313 313 310 307 308 310 310 311 312 311 310 310 310 310 309 309 309 309 309 309 311 312 313 313 313 313 315 316 318 319 318 319 322 325 324 325 323 316 316 315 311 315 323 326 326 327 328 326 328 329 322 324 329 321 315 317 316 314 314 313 314 315 315 312 311 316 322 330 335 333 334 333 337 350 355 352 353 354 352 353 352 353
308 310 312 314 315 314 312 309 308 307 310 310 311 312 311 310 310 309 309 309 309 309 308 308 309 309 309 310 310 311 311 311 312 314 315 318 319 321 322 324 325 326 323 319 318 317 311 314 324 327 325 327 327 327 328 326 321 322 321 316 320 326 322 314 313 315 313 314 317 314 312 318 322 326 330 331 334 332 332 346 354 353 354 354 354 354 353 354
310 312 314 315 314 313 311 308 308 309 310 311 312 312 310 309 309 308 308 308 308 308 308 308 309 308 308 309 309 309 310 310 312 313 314 314 318 322 322 323 326 325 326 323 321 321 316 314 325 327 324 326 327 327 329 329 326 321 316 318 325 326 323 317 314 316 315 314 315 312 312 315 313 317 328 330 331 332 330 337 348 354 354 355 355 355 356 355
310 313 315 316 314 312 310 308 307 309 310 311 313 312 309 307 307 307 307 306 307 307 307 308 309 309 308 308 309 310 310 310 311 313 314 314 317 320 318 320 322 320 323 323 322 325 322 315 322 328 327 327 327 327 325 327 330 325 321 325 324 316 314 316 313 314 317 315 314 312 312 313 312 315 324 327 327 331 331 328 340 352 355 353 354 355 355 354
311 314 315 313 311 310 308 307 308 310 310 311 311 310 308 307 307 307 306 306 306 306 307 307 308 308 309 308 309 309 309 310 311 312 313 314 316 317 317 316 318 317 317 319 322 325 325 318 318 326 329 327 326 324 319 320 327 329 327 327 325 318 316 316 315 313 315 317 316 315 313 312 318 325 324 326 328 328 332 330 337 351 354 350 352 353 353 354
311 314 315 312 310 309 308 308 309 310 311 311 310 308 307 307 306 306 307 306 306 306 306 307 307 307 308 307 308 309 309 310 310 311 312 313 315 317 317 315 316 318 316 318 322 324 328 323 316 324 329 323 321 322 320 321 324 323 322 320 319 319 319 319 316 314 315 317 317 318 316 316 329 337 329 328 329 329 334 337 338 349 352 350 351 353 350 351
310 313 315 312 310 311 309 308 309 310 310 309 308 307 307 308 307 306 306 306 306 306 307 306 307 307 307 308 308 308 309 309 310 311 311 312 315 317 317 314 315 316 316 319 323 323 327 327 318 318 321 317 319 326 328 326 326 325 322 319 318 318 316 314 315 314 313 313 316 318 318 325 342 340 333 331 331 329 334 339 340 348 352 350 350 351 350 351
311 312 313 311 311 312 309 307 309 310 309 308 308 307 308 309 308 306 307 306 306 306 306 306 307 307 307 308 308 307 308 308 309 311 311 312 315 315 314 314 314 315 315 319 322 322 326 330 323 317 319 320 324 327 328 327 328 329 326 326 326 321 315 311 314 317 312 311 315 313 314 333 358 349 339 335 330 330 333 336 343 349 350 350 350 348 349 350
310 311 312 311 311 312 310 308 310 310 308 308 308 307 308 308 307 306 306 307 307 306 306 306 306 307 307 307 307 307 308 309 309 310 311 312 315 314 313 314 313 314 316 319 324 324 325 329 326 323 324 327 329 329 329 329 330 326 325 328 326 322 320 318 321 324 316 311 314 312 313 331 359 359 348 337 333 334 331 333 344 350 349 348 348 347 348 350
310 311 311 312 311 309 309 309 309 309 308 308 307 308 308 307 307 307 306 307 307 307 306 306 306 307 307 307 307 307 308 309 310 310 311 312 313 313 313 312 312 314 315 320 325 323 323 327 330 329 327 323 325 326 322 326 327 325 327 329 327 326 325 323 325 325 319 314 314 313 313 327 354 368 355 342 337 332 333 335 341 348 350 348 347 346 347 348
309 310 311 311 310 309 309 308 308 308 308 308 308 308 308 308 308 307 307 307 307 307 306 307 306 306 306 307 307 307 308 309 309 310 311 312 312 312 312 311 312 312 315 320 323 320 321 326 329 332 330 325 324 324 319 321 323 324 327 326 327 327 323 322 320 317 319 321 318 315 317 327 346 354 347 347 346 337 334 334 336 345 349 347 348 345 345 348
307 310 311 311 309 308 309 309 309 309 308 308 308 308 308 308 308 307 307 307 307 307 307 307 306 306 307 308 308 308 308 309 309 310 311 312 312 311 311 311 310 312 317 322 320 317 320 325 327 330 332 330 328 330 330 328 321 319 322 325 325 327 325 325 319 315 324 327 320 323 330 326 330 339 343 348 352 345 339 342 353 359 354 350 349 347 348 350
306 309 310 310 310 309 310 310 310 310 310 308 308 308 308 308 308 307 308 307 307 307 307 307 306 307 308 308 308 308 308 308 309 309 310 311 311 310 311 311 311 314 318 319 317 317 320 323 326 328 329 329 330 331 333 331 324 319 321 323 324 325 325 322 317 321 332 325 318 336 344 328 329 342 347 349 349 345 345 352 364 368 363 357 353 350 350 350
307 308 307 308 310 310 310 310 309 310 310 309 308 309 309 308 308 308 308 307 307 307 308 308 307 308 309 308 308 308 308 308 308 309 310 311 311 311 311 311 311 313 315 313 314 316 317 320 323 323 323 325 328 329 330 330 329 327 324 323 324 325 322 319 319 328 334 325 326 348 350 333 336 343 342 349 352 345 345 352 356 357 361 360 353 349 349 348
307 306 305 306 307 308 308 308 309 310 310 309 309 309 309 309 308 308 308 307 307 307 308 308 308 308 308 308 309 309 309 308 308 309 310 310 311 311 312 311 312 312 311 311 313 313 315 320 321 319 321 324 326 329 330 330 329 329 328 327 326 325 324 321 323 329 334 331 339 356 351 338 337 340 341 349 350 343 346 353 350 351 356 359 354 350 347 346
307 306 306 306 305 306 307 308 309 310 310 310 310 309 309 309 309 308 308 307 307 308 307 308 308 307 307 307 308 308 308 308 308 308 309 310 310 311 311 311 311 310 310 310 312 312 314 318 319 318 322 325 326 329 330 329 329 327 327 331 328 326 324 322 323 326 330 330 332 346 347 339 336 342 345 347 351 348 349 350 350 350 351 353 353 351 348 349
306 306 306 306 305 306 308 308 309 310 311 310 310 310 309 309 309 309 308 308 307 308 308 308 307 307 307 307 308 308 308 308 308 308 308 309 309 309 310 310 310 310 310 310 311 312 314 316 316 319 324 325 325 327 328 329 328 324 324 329 330 326 322 322 324 324 329 333 328 330 336 341 343 347 346 347 351 352 351 348 349 351 352 350 352 355 360 363
306 305 306 306 306 307 307 308 308 310 311 310 310 310 310 310 309 308 309 309 307 308 308 307 308 307 307 308 308 308 308 307 307 307 307 308 308 307 308 309 309 309 309 310 311 311 313 315 315 318 323 325 323 325 327 326 325 323 326 330 332 332 329 326 325 326 331 335 329 330 341 355 353 344 339 341 348 351 351 349 350 354 355 350 350 355 362 367
Wind_Speed
27 27 27 26 27 28 29 30 31 31 31 32 32 32 31 29 28 26 25 24 23 22 23 24 23 23 21 20 19 19 19 19 21 14 15 29 32 24 18 15 9 8 16 16 15 15 14 14 16 19 15 11 9 7 10 10 7 4 3 4 4 3 4 3 4 4 2 3 4 4 5 6 7 7 5 10 11 12 14 12 13 14 16 19 24 32 34 34
26 26 26 26 28 29 31 32 32 33 34 33 33 33 32 30 28 27 26 25 23 23 25 25 24 23 20 19 17 15 16 18 19 17 27 37 33 29 25 21 16 11 15 20 20 19 15 12 14 16 11 7 7 8 9 8 8 5 3 5 4 4 5 5 6 6 1 3 2 1 7 6 6 5 3 8 10 8 10 14 17 18 18 22 27 31 32 34
26 27 28 28 28 28 30 31 32 35 35 34 33 33 33 31 30 29 28 25 23 24 25 26 25 22 18 17 13 10 11 14 12 16 27 26 27 34 33 25 19 17 18 22 23 22 17 16 17 14 9 7 7 9 10 8 7 6 5 4 4 8 7 7 8 8 2 4 1 5 9 5 7 4 2 9 11 8 10 14 18 19 20 21 23 27 30 31
27 29 29 28 29 31 33 33 34 36 36 35 34 34 34 32 31 30 28 25 24 24 25 25 24 20 16 14 9 6 7 10 6 11 15 13 14 23 32 32 23 19 20 22 22 22 20 19 18 14 9 8 8 10 11 8 6 6 7 6 7 9 7 7 9 10 6 3 4 5 10 4 10 7 5 10 10 9 10 13 19 22 23 23 22 24 27 27
30 31 30 30 32 35 36 35 36 37 37 36 35 35 34 32 31 30 27 25 24 24 25 24 21 17 14 11 4 2 4 4 2 3 6 9 6 11 25 31 26 23 22 21 20 20 21 17 14 13 9 7 9 9 10 11 9 5 8 10 9 7 6 7 9 9 6 5 5 4 11 6 9 7 5 9 8 6 10 16 21 23 23 24 23 22 23 22
32 31 32 34 35 36 36 37 38 38 38 37 35 35 34 33 32 30 27 25 24 24 24 21 18 15 12 7 2 0 2 2 3 3 6 11 7 5 19 28 28 26 24 21 19 18 16 14 12 11 8 8 11 10 10 12 11 7 6 10 9 9 8 7 7 7 5 6 7 7 12 7 9 9 6 10 11 9 12 20 22 21 21 24 24 21 20 19
32 33 35 36 37 38 38 39 39 39 39 38 36 35 33 33 32 29 27 25 24 24 23 20 17 14 8 4 2 2 2 8 15 6 1 8 7 2 13 26 29 27 25 20 16 14 12 13 13 10 9 9 10 12 12 13 14 10 6 8 9 10 10 6 6 6 5 8 9 9 10 6 10 11 11 10 13 14 15 21 22 20 21 23 23 22 20 18
35 36 37 38 38 39 39 40 40 39 39 39 37 34 33 33 31 29 26 25 24 23 21 17 14 11 4 1 2 3 4 16 22 14 12 12 5 0 9 23 29 27 24 21 16 13 11 13 14 10 10 10 9 11 12 12 13 12 9 9 9 9 10 8 7 7 9 10 8 10 10 9 11 10 11 13 16 15 17 22 21 19 19 19 19 21 19 17
37 37 38 39 39 40 40 40 40 40 40 39 37 35 34 33 30 28 26 25 25 22 19 15 12 8 1 1 3 3 9 19 19 13 16 16 11 6 11 19 28 27 22 22 20 16 12 11 14 12 9 9 10 11 12 11 9 10 11 11 11 10 11 11 11 10 9 8 5 9 12 12 14 11 11 17 19 17 20 22 20 19 18 16 16 19 18 18
38 38 39 39 40 41 41 41 41 40 40 39 37 35 34 32 30 29 27 26 25 20 16 13 10 4 2 4 4 4 11 15 14 15 19 16 14 15 16 18 27 29 20 19 19 17 14 11 12 11 9 9 10 11 12 11 8 10 14 14 13 12 12 11 13 13 9 6 5 7 9 10 13 12 9 15 19 19 22 21 20 19 18 17 16 16 16 17
39 39 39 40 41 42 42 41 41 41 40 38 36 35 34 32 30 30 29 28 23 17 13 12 8 3 6 5 4 6 10 8 7 11 21 20 17 20 20 20 26 29 21 16 18 21 19 17 13 8 7 7 8 11 11 12 11 12 13 13 16 15 12 11 13 14 10 6 7 9 11 10 9 12 13 17 20 21 23 21 20 18 16 16 16 14 13 13
40 40 40 41 42 42 42 41 41 40 40 38 36 35 34 33 31 31 30 26 19 12 10 11 6 4 6 4 9 17 14 9 9 8 15 20 20 18 19 22 25 28 24 14 16 23 24 23 18 10 7 6 7 8 7 11 13 13 13 11 13 15 13 13 13 11 12 8 10 12 11 10 7 12 21 22 20 22 22 21 20 18 15 15 14 13 12 12
40 40 41 42 42 42 42 41 41 40 38 37 35 35 35 33 32 32 28 21 13 9 10 10 4 6 6 3 14 27 24 21 21 21 16 15 20 18 16 21 23 26 27 18 16 23 26 26 20 12 9 8 7 6 6 10 11 12 12 9 7 8 9 15 14 10 12 9 10 11 8 7 8 12 25 24 23 24 22 19 18 17 15 14 14 11 12 13
41 41 42 42 42 42 42 42 41 39 37 35 35 35 34 34 32 29 24 16 10 8 10 7 2 7 6 7 16 23 25 27 25 24 20 16 20 21 18 20 21 24 25 22 20 22 26 27 20 11 9 9 7 6 9 9 8 8 7 6 5 4 5 10 12 11 11 7 11 12 6 6 9 12 27 25 24 26 21 19 16 16 15 13 14 12 12 13
42 43 43 43 43 42 43 42 41 38 36 34 34 34 34 32 27 25 21 14 10 8 8 5 5 7 4 10 18 20 19 23 27 28 22 18 17 19 20 21 21 23 24 23 22 20 21 22 15 8 7 8 8 8 8 6 5 5 4 4 4 4 5 6 7 9 10 8 14 14 6 5 8 10 28 24 23 25 21 20 17 17 17 14 14 13 12 13
43 44 43 44 43 43 43 42 40 37 35 34 33 33 33 27 22 23 18 9 7 7 4 2 9 10 5 7 10 13 9 13 22 28 24 20 17 14 20 23 19 20 23 22 22 18 18 14 8 6 6 7 7 7 5 5 5 4 5 5 3 6 5 6 9 9 12 10 13 14 6 5 7 10 24 23 25 24 19 20 19 17 18 15 14 13 12 12
43 44 43 44 44 44 43 41 39 35 33 34 32 34 31 22 20 20 10 3 4 5 6 5 6 8 7 10 10 11 7 13 18 21 21 22 20 18 18 18 14 15 17 19 19 15 13 9 5 5 6 6 6 5 5 6 6 4 5 6 6 7 7 7 9 10 13 13 12 13 9 7 5 15 23 22 25 23 18 19 17 15 15 14 14 14 13 12
43 43 42 43 44 45 43 41 37 32 33 33 31 35 28 19 20 14 3 2 1 4 8 8 6 4 6 8 7 10 9 10 18 19 20 22 23 24 19 11 12 13 12 11 13 12 8 6 5 5 6 7 7 7 7 8 7 6 5 5 6 7 7 9 9 9 12 16 13 12 13 11 4 18 21 20 23 21 18 19 17 16 16 15 15 15 14 13
43 42 42 42 43 43 42 41 34 29 32 31 30 31 19 12 14 5 2 2 2 4 5 4 5 4 8 10 9 14 17 17 16 21 19 22 24 24 21 13 13 13 10 7 9 11 7 5 6 7 8 10 10 10 9 8 8 11 10 7 8 8 8 9 10 11 11 15 13 10 12 12 9 16 17 19 21 19 20 19 16 16 16 15 16 15 14 15
43 43 43 43 43 42 40 39 33 27 30 33 33 26 11 9 8 1 3 8 6 9 12 11 10 11 16 18 17 18 22 26 12 17 20 22 21 18 16 12 12 12 11 9 9 10 8 6 9 11 10 11 13 13 12 11 11 14 13 8 10 9 8 11 12 14 10 11 12 11 9 10 11 16 17 18 17 18 21 20 16 16 16 15 16 16 16 15
44 44 43 43 43 41 39 38 30 24 27 32 29 15 6 10 8 6 11 11 10 11 16 19 17 17 20 20 24 20 14 19 15 8 20 23 18 13 11 11 12 10 11 12 9 8 8 10 12 13 12 12 13 14 14 14 14 14 12 9 7 8 9 12 14 14 10 8 11 14 11 9 9 13 18 19 17 19 22 21 18 17 16 14 15 18 17 13
45 44 44 43 42 40 38 36 27 22 24 25 18 7 7 13 12 14 15 11 12 13 18 22 21 21 22 25 34 26 8 11 18 13 16 21 14 11 10 12 12 9 11 12 8 7 9 13 15 13 12 13 12 14 16 16 15 12 10 9 7 6 7 11 14 13 10 6 9 14 12 9 10 10 16 19 17 17 20 20 19 18 16 15 16 17 16 15
45 45 45 42 42 40 37 33 24 19 22 22 15 10 14 20 20 21 14 9 15 16 17 21 21 19 19 21 30 24 10 11 14 15 14 18 12 11 11 11 13 11 11 13 11 9 10 11 14 13 11 14 14 14 16 15 13 10 9 8 8 9 8 6 10 13 11 6 8 13 11 8 10 9 13 18 17 16 18 19 19 19 18 18 18 16 17 18
45 46 44 42 42 37 34 29 19 20 26 23 16 17 22 24 23 23 13 6 12 16 14 18 17 14 19 18 16 15 11 10 10 12 13 17 11 10 11 10 13 12 11 16 16 14 12 8 12 15 14 15 15 15 15 12 10 11 12 10 8 11 13 9 8 11 11 8 9 11 7 6 9 10 11 16 16 15 18 19 18 18 17 17 17 15 17 19
46 45 43 42 38 35 33 22 16 27 31 20 18 23 27 25 23 23 13 4 7 11 8 9 9 10 19 20 12 9 9 11 12 12 12 16 13 9 9 8 9 12 13 17 17 15 14 9 12 17 17 16 16 14 15 12 8 11 14 14 12 12 14 16 13 9 7 6 9 11 6 4 8 11 10 13 15 14 18 20 18 17 17 17 16 15 16 18
46 44 42 39 35 36 28 10 16 32 25 14 20 28 27 24 26 24 11 3 6 7 3 2 5 5 9 12 9 7 7 10 13 16 15 15 17 10 8 7 5 10 14 14 11 8 10 12 12 16 17 18 16 12 14 14 8 7 11 15 16 15 14 16 16 9 4 4 8 12 7 3 6 9 8 12 16 15 17 20 19 17 17 18 16 15 17 17
46 43 41 36 31 32 21 8 21 27 13 14 26 30 28 26 29 23 6 2 4 3 1 1 1 2 2 7 11 8 5 5 9 16 17 15 17 11 10 9 6 9 9 8 9 7 10 15 15 15 16 15 14 11 13 15 10 6 9 14 17 17 17 16 14 9 5 3 7 12 11 4 4 7 8 12 15 15 17 19 18 18 18 19 18 17 17 17
46 43 39 34 27 23 17 16 21 15 10 21 29 29 29 30 27 14 2 2 3 2 2 3 5 4 5 4 15 9 5 8 9 13 18 18 17 12 11 13 9 10 11 9 9 7 11 17 17 16 14 11 11 12 12 14 12 7 9 12 15 17 17 16 12 9 7 5 5 7 10 7 4 6 8 11 13 14 18 19 18 18 19 19 18 17 17 17
47 43 37 33 25 16 15 17 15 13 18 26 28 29 32 29 19 4 1 4 3 5 5 5 9 9 13 6 13 12 8 5 5 9 16 19 17 12 10 12 12 11 13 14 10 6 9 14 16 16 13 10 11 13 14 15 12 9 11 12 10 14 15 13 10 7 6 5 6 6 7 6 4 5 7 9 10 13 17 17 16 18 19 19 18 18 18 16
48 42 34 30 24 17 18 18 15 16 22 27 28 32 30 19 7 1 2 4 3 8 7 7 12 15 19 15 3 9 10 10 7 3 11 12 14 14 8 9 12 11 10 14 13 10 10 10 14 14 12 9 10 12 15 16 13 10 11 11 9 8 9 9 8 5 5 6 8 8 6 4 4 5 7 10 11 13 16 15 15 18 19 19 18 18 18 16
48 41 31 24 21 19 15 13 15 18 22 28 29 27 19 7 1 1 3 3 6 10 10 12 17 19 20 18 10 8 9 11 10 7 6 7 11 12 9 8 9 8 8 10 12 13 13 11 10 11 12 12 10 10 14 15 15 11 8 8 6 5 4 5 5 5 7 7 7 8 8 6 5 6 7 9 11 16 19 18 19 21 21 19 17 17 18 16
47 40 28 19 17 18 13 12 18 21 23 28 24 14 7 3 0 2 5 7 6 8 12 15 19 19 20 18 13 11 8 7 10 10 6 6 8 9 11 9 6 7 9 8 8 10 13 14 11 9 13 16 12 9 10 12 13 11 7 7 6 4 4 5 5 6 8 5 3 5 7 6 5 6 8 7 8 14 19 20 23 24 22 20 18 17 16 16
47 39 26 16 15 20 19 17 19 20 23 25 16 6 3 2 2 3 6 6 5 9 11 14 20 21 18 15 12 12 11 6 7 11 10 8 8 10 13 13 9 9 8 6 6 7 9 11 14 14 11 15 15 9 7 9 9 11 9 7 7 6 5 6 5 5 5 3 4 5 5 6 6 5 7 8 7 9 12 18 24 26 24 22 20 18 17 17
46 36 25 18 16 19 17 15 15 18 22 19 8 4 4 3 2 6 7 5 6 12 13 14 20 21 16 11 11 11 10 9 7 6 9 8 8 9 11 16 17 11 5 5 6 7 8 8 13 16 8 11 17 13 7 8 8 10 10 6 6 6 4 5 4 3 2 2 5 8 5 5 6 4 5 7 7 8 6 14 23 24 22 21 19 19 18 17
43 33 26 20 17 16 10 8 12 17 17 10 4 4 4 3 3 6 7 6 7 11 14 15 17 16 14 10 11 13 13 10 15 13 7 7 8 9 8 12 16 13 6 5 6 7 10 8 9 14 11 10 17 15 10 9 8 8 8 7 7 6 4 3 3 4 3 1 3 7 5 3 4 5 6 8 8 10 7 13 23 23 22 21 18 19 18 17
42 33 23 18 16 12 8 8 12 15 11 6 4 3 2 4 5 5 6 8 9 11 14 14 10 10 11 9 11 18 17 12 15 13 8 8 6 9 9 9 14 16 12 6 5 5 8 8 7 13 17 16 15 14 13 10 6 5 9 10 6 6 5 3 2 3 3 2 3 4 5 3 4 6 7 9 10 13 12 12 22 24 24 24 20 19 18 17
41 29 17 18 14 7 8 12 12 12 8 4 4 4 2 3 5 7 8 10 10 11 11 8 6 7 10 9 10 16 18 14 13 11 8 9 6 4 4 4 5 10 16 12 8 7 6 6 8 13 18 20 15 14 15 13 8 6 9 9 5 4 6 4 2 2 4 5 4 7 9 6 6 6 7 10 11 14 16 14 18 21 21 20 18 17 18 18
34 22 14 14 8 4 10 13 11 8 4 4 6 5 3 4 6 8 9 11 11 10 7 6 6 6 9 10 10 15 17 11 10 11 9 7 5 15 16 9 11 14 12 13 9 9 8 6 8 13 17 18 15 13 13 14 14 9 7 8 7 4 6 5 4 4 5 5 4 8 11 8 7 7 9 14 15 12 15 16 17 21 21 18 17 18 19 18
24 13 6 3 3 6 14 13 9 6 3 4 5 3 4 5 7 10 11 11 10 8 6 6 7 7 9 10 10 13 13 10 11 10 7 7 7 14 18 12 16 25 26 21 10 8 9 5 5 11 14 15 12 10 10 12 14 11 7 8 8 5 4 5 4 3 3 4 4 6 7 6 6 8 13 18 18 14 13 13 15 23 25 20 18 18 18 16
14 7 5 5 10 11 17 14 8 4 3 5 4 4 6 6 6 8 10 12 8 5 6 7 9 8 8 11 11 10 10 10 11 9 7 9 11 12 14 16 17 24 29 25 12 4 5 6 5 10 11 12 11 10 11 12 12 11 8 7 8 5 4 4 4 4 3 3 3 4 4 5 5 7 13 18 18 16 13 11 13 22 25 22 20 19 18 16
11 4 7 14 21 19 17 11 6 4 3 4 3 5 7 8 8 6 8 12 8 5 7 8 9 8 6 9 10 8 9 9 9 8 7 9 9 7 11 18 20 21 23 19 11 8 5 3 6 9 8 8 11 13 13 13 13 11 8 6 8 8 7 6 5 6 5 3 3 3 3 6 5 3 8 15 16 14 13 10 10 19 26 23 20 20 19 17
8 4 12 24 32 28 13 3 5 5 1 3 6 6 7 9 11 8 8 10 7 5 6 7 9 9 6 8 9 8 8 8 9 8 7 9 9 9 15 21 22 20 17 13 10 10 7 3 6 9 7 7 10 14 16 15 14 13 10 7 7 8 8 7 5 6 6 4 5 4 4 6 6 5 6 14 15 12 14 11 9 17 24 22 20 20 19 18
5 8 23 33 35 26 10 1 5 5 3 7 10 10 10 9 9 8 7 8 6 6 6 5 7 9 7 8 9 9 9 8 9 9 10 11 10 12 18 21 22 20 14 9 10 12 10 4 4 6 6 8 10 12 17 17 14 12 11 10 8 8 9 7 4 5 6 5 6 4 4 5 7 7 1 9 12 11 12 11 11 16 19 19 21 20 18 17
5 8 17 27 31 24 8 3 5 4 6 9 10 10 11 10 9 8 7 8 7 6 7 6 7 8 8 9 9 10 10 7 7 10 12 11 10 14 18 20 21 17 11 10 11 10 9 5 2 4 3 4 7 6 12 14 12 9 9 12 11 10 12 9 4 4 4 7 8 5 4 6 6 7 7 7 10 12 11 9 11 15 16 17 19 19 17 18
7 5 6 16 25 18 6 5 7 6 8 11 11 12 11 8 9 9 8 9 8 6 6 6 8 9 9 9 10 10 9 7 7 9 10 11 11 12 16 21 21 15 13 18 18 10 6 5 3 3 3 3 2 2 4 8 11 8 9 15 15 14 13 9 5 4 3 7 9 6 5 6 5 5 7 8 8 11 11 10 8 12 17 18 17 17 17 16
5 5 4 9 13 9 5 8 10 8 8 9 9 10 11 9 10 10 8 8 8 7 6 7 9 10 8 9 10 10 9 9 9 8 8 10 10 10 16 21 19 17 19 23 21 11 4 5 5 5 6 6 5 6 8 7 8 12 12 14 17 18 15 7 6 5 4 5 6 6 6 5 3 1 3 4 7 8 8 8 6 7 16 19 16 16 16 15
3 4 6 6 5 6 6 8 10 9 11 11 7 8 12 12 10 9 7 6 8 8 7 6 8 8 8 9 10 9 10 10 9 8 8 9 10 12 17 18 15 17 22 21 17 12 5 5 7 7 9 10 11 12 13 13 8 14 17 14 15 20 19 11 7 8 7 7 5 7 9 8 6 4 1 2 6 7 7 8 8 7 11 16 17 17 16 15
2 3 6 7 4 5 6 7 10 11 14 14 8 8 12 12 10 9 7 8 10 9 6 5 8 9 9 10 9 8 10 9 7 8 7 8 11 12 15 16 12 14 18 15 13 11 5 5 11 14 15 14 13 13 12 12 11 7 14 17 15 18 23 18 8 8 10 8 5 7 11 10 6 5 3 2 4 6 6 8 9 7 7 11 18 20 18 17
1 3 5 7 5 6 9 11 12 13 13 12 8 7 10 11 10 9 8 9 9 7 6 7 10 11 11 12 9 7 9 8 7 7 6 8 10 9 11 12 9 11 15 13 11 10 5 6 14 17 16 14 11 10 10 10 10 8 6 14 17 15 21 21 13 8 11 9 7 8 10 9 6 5 4 3 3 4 6 7 9 9 8 9 14 19 20 18
2 3 4 5 5 7 9 10 10 9 9 9 8 8 10 12 12 10 9 10 10 8 7 8 12 12 11 11 9 8 10 10 10 9 7 8 8 6 5 7 8 13 15 11 9 10 6 8 16 16 11 10 10 8 9 10 8 9 10 10 17 16 17 20 17 10 7 9 10 9 8 6 5 6 5 5 4 6 8 8 9 9 9 10 11 13 15 15
3 4 4 4 5 6 7 7 7 7 6 5 5 7 9 12 14 13 12 11 11 9 8 10 12 11 10 11 10 10 11 10 11 12 10 8 7 5 4 5 9 13 13 10 9 10 8 8 11 11 7 7 12 11 10 12 10 9 11 8 8 9 10 15 18 13 7 9 11 7 6 5 6 6 5 4 6 9 8 7 8 8 8 10 10 10 11 10
4 4 2 2 4 6 6 7 7 6 5 4 6 7 8 10 14 13 9 7 9 11 11 13 13 9 9 11 10 10 11 11 12 12 10 9 9 7 6 9 12 12 10 9 8 7 8 8 8 8 6 7 14 15 10 9 8 6 7 5 3 1 4 6 15 15 8 8 9 6 5 5 5 7 8 7 9 10 7 6 8 8 8 8 8 10 11 11
Wind_Direction
0 358 355 353 352 354 355 355 355 354 352 350 349 347 347 346 344 342 338 334 330 326 324 323 320 317 314 313 313 312 317 313 304 296 254 254 256 250 242 229 233 229 199 195 196 179 182 198 200 205 207 206 215 231 228 227 223 199 156 217 235 225 246 261 278 290 65 69 84 107 200 191 167 183 144 120 129 153 163 144 129 120 126 135 136 143 144 144
354 353 351 349 350 352 352 352 352 353 352 349 348 347 347 346 344 342 338 334 330 325 324 323 320 316 312 311 311 316 323 311 297 275 260 262 261 253 247 233 224 223 190 190 201 187 180 195 197 199 205 216 215 225 230 225 223 219 207 218 231 231 237 252 272 286 44 74 11 238 221 206 140 147 98 120 143 154 143 130 123 119 126 131 137 144 145 147
351 351 350 349 348 347 346 345 347 350 350 349 347 344 344 344 342 341 337 334 330 326 324 321 319 315 312 310 312 330 325 308 292 264 271 276 260 247 243 235 217 213 201 192 199 197 190 188 193 196 200 219 217 219 221 220 222 215 221 225 224 228 236 248 259 273 248 112 3 291 257 215 120 128 159 133 136 123 114 124 127 126 133 137 143 149 150 152
351 351 349 346 345 347 347 346 346 348 348 347 345 343 342 341 341 340 337 334 330 327 325 322 320 316 314 313 315 346 317 297 269 251 285 303 267 238 228 229 214 205 208 199 199 205 206 193 190 197 201 216 220 223 220 214 217 207 210 227 231 215 220 239 237 253 246 148 178 256 281 238 140 155 152 132 136 124 122 133 135 137 144 148 151 152 156 157
353 351 348 347 347 348 348 346 346 346 346 345 343 343 341 341 340 339 338 334 330 328 325 324 321 319 318 317 335 17 312 292 197 199 339 346 300 222 212 217 209 204 207 202 205 213 219 208 193 196 203 218 219 222 225 217 216 221 213 227 235 194 200 231 224 238 231 218 216 224 277 257 136 127 122 140 154 147 143 141 139 143 148 151 151 152 160 161
352 350 349 348 348 348 346 345 345 345 344 344 343 342 340 339 339 338 338 334 330 327 326 325 321 322 320 326 47 194 242 285 329 61 38 13 16 179 194 201 202 203 201 200 210 219 223 219 205 199 202 216 220 218 224 218 216 232 221 232 233 179 196 215 202 231 221 230 235 221 247 230 123 123 164 172 160 162 149 140 142 146 147 147 147 153 165 165
351 351 350 349 348 347 346 345 345 344 343 342 342 340 338 337 337 337 337 334 331 327 324 322 318 322 327 17 88 225 221 268 276 245 218 350 18 112 184 194 198 194 194 197 209 220 220 220 215 205 203 211 224 222 225 223 218 226 222 242 235 186 204 210 184 208 212 233 234 240 247 181 148 156 178 175 144 147 139 135 143 146 149 151 151 160 167 163
354 354 352 350 349 346 345 344 344 343 341 341 339 338 336 335 336 334 335 335 330 326 321 316 318 322 327 62 217 240 225 253 260 237 240 272 287 1 172 189 193 187 191 198 205 217 221 223 217 209 210 209 221 223 230 233 223 221 214 232 240 213 214 211 209 208 209 232 222 228 235 180 177 168 157 141 130 140 131 132 142 144 151 156 157 158 161 163
357 356 353 351 349 346 345 344 343 342 340 339 337 336 334 334 334 333 334 334 329 323 315 309 316 320 296 220 252 261 240 252 264 247 238 244 232 195 165 180 189 188 197 205 210 219 220 224 218 214 219 212 220 226 232 238 226 215 209 214 229 236 226 204 209 215 209 234 238 217 214 193 181 159 138 134 135 140 130 134 144 146 153 159 161 158 161 166
358 356 353 351 349 346 345 344 343 341 340 338 336 333 332 333 332 331 331 330 327 319 306 301 308 305 213 231 228 248 253 265 283 248 224 221 206 177 170 180 186 190 203 208 212 221 221 226 221 217 230 226 223 228 232 237 238 224 216 214 218 231 236 208 196 202 203 225 262 255 238 214 175 147 132 134 135 135 131 140 146 148 157 162 165 163 164 163
359 356 353 351 348 346 345 344 343 341 339 336 334 331 330 331 330 330 329 326 324 313 296 296 301 247 215 231 210 237 255 284 309 226 202 202 192 175 176 181 183 189 201 208 213 219 224 232 229 216 225 230 233 239 237 240 254 252 237 224 215 218 227 219 206 199 190 205 230 243 254 241 183 146 145 139 135 137 138 144 148 153 158 163 168 162 165 169
357 355 352 350 348 346 344 344 343 341 339 335 331 330 329 330 329 329 326 321 320 305 288 294 294 209 224 250 227 234 250 275 296 262 203 192 193 195 188 182 186 190 194 203 214 218 227 234 233 226 214 210 235 249 248 243 253 262 261 252 225 218 215 217 227 204 178 190 205 218 246 249 213 155 145 140 137 140 142 148 153 156 160 165 169 159 168 181
356 354 351 349 347 345 344 344 343 341 338 333 330 328 328 328 328 329 323 316 314 294 283 294 278 207 221 250 236 243 265 280 286 291 267 214 200 205 199 190 192 193 193 201 212 217 227 235 236 236 233 223 225 239 261 251 247 250 255 261 244 236 219 207 215 208 190 188 187 207 241 236 225 162 143 142 145 143 144 154 158 158 163 165 164 164 172 178
355 353 350 348 346 344 344 343 342 341 336 331 329 328 328 328 329 329 321 309 308 285 275 292 215 191 218 257 262 263 270 275 281 283 275 249 209 191 193 198 192 190 194 205 218 220 225 234 240 240 242 245 247 249 257 255 248 256 259 251 237 251 254 211 203 199 198 193 184 209 241 220 233 164 144 145 148 147 147 157 160 160 164 161 162 169 172 177
354 352 349 347 345 344 343 342 342 340 335 331 328 328 329 330 330 326 316 304 304 283 272 291 189 196 261 261 274 287 270 261 265 256 252 256 226 188 185 194 191 190 192 207 225 234 233 234 239 240 242 252 264 261 258 267 257 252 262 255 219 215 270 264 236 202 197 202 194 211 239 231 253 156 144 147 146 148 150 156 161 162 164 163 164 170 171 179
353 351 348 345 344 344 343 342 341 339 334 330 327 329 331 330 326 320 314 302 297 276 252 250 196 203 280 271 283 302 260 231 243 240 238 246 239 207 184 184 193 198 193 204 221 237 243 237 231 239 246 245 246 247 255 272 263 228 214 243 224 202 230 262 264 231 206 207 201 210 222 232 249 153 144 146 145 150 151 153 160 163 164 164 162 170 173 175
352 350 347 344 344 343 342 341 340 338 333 329 328 331 332 332 327 321 316 299 300 257 218 243 219 198 250 272 303 307 243 213 226 230 233 235 235 228 199 178 187 201 198 204 212 226 241 233 214 219 231 235 229 224 232 234 239 234 205 221 238 220 207 216 248 244 211 202 206 203 206 241 218 147 148 148 146 150 147 147 159 163 165 164 160 170 178 177
351 349 347 344 343 342 340 340 340 336 332 329 329 331 331 336 332 324 288 214 260 227 227 254 255 214 244 257 281 284 269 234 212 210 222 222 224 233 226 191 175 190 203 208 207 214 227 222 210 204 211 222 222 213 218 218 218 234 219 198 226 240 230 214 221 237 206 194 208 196 201 239 172 139 149 149 146 147 146 150 163 168 165 164 163 170 176 178
351 350 347 345 343 342 340 339 339 334 331 328 330 334 336 341 332 313 210 306 337 251 255 256 220 232 297 290 271 269 293 292 225 197 211 214 212 227 233 210 176 183 201 204 200 202 209 218 213 212 208 207 215 219 221 223 219 232 235 205 202 223 242 235 226 235 206 185 202 195 198 220 172 150 152 148 148 148 152 161 167 168 166 164 165 169 174 176
352 350 349 346 343 341 339 339 337 333 331 327 328 332 338 353 343 276 313 315 289 259 260 262 243 255 283 289 289 288 305 311 275 187 200 208 201 213 230 211 179 186 203 201 196 194 201 222 222 218 211 202 209 221 229 233 231 236 244 229 206 205 225 238 238 242 218 177 192 192 204 218 175 161 157 151 152 149 155 167 168 163 165 168 165 167 172 176
352 350 349 346 343 341 338 339 337 331 330 326 324 328 2 9 354 326 324 301 266 251 252 257 248 252 264 268 278 288 309 315 307 223 203 203 197 199 214 205 188 194 201 199 196 189 202 224 226 218 213 212 207 213 224 233 237 238 249 254 226 209 216 225 233 242 225 186 189 184 196 221 190 166 161 157 155 154 161 168 167 161 163 170 167 167 172 172
351 350 349 346 344 342 338 340 337 329 335 332 328 347 16 -0 341 326 323 300 277 256 246 252 246 246 252 253 262 268 278 283 290 280 210 191 198 198 193 198 196 197 192 196 201 188 207 226 224 215 211 219 215 210 213 224 236 237 243 259 256 241 231 220 228 241 227 192 186 180 182 211 213 185 165 162 162 164 168 167 164 164 165 172 170 169 170 167
351 350 349 346 345 341 338 341 337 336 342 333 335 4 359 345 338 332 323 297 291 271 244 239 236 237 237 243 253 250 239 242 261 275 218 184 199 203 196 199 194 200 192 195 206 196 211 222 215 215 213 215 220 219 211 213 230 237 233 241 251 255 255 229 221 232 233 207 178 177 178 199 213 198 169 169 172 168 167 165 165 169 170 172 172 169 169 167
350 348 348 346 344 342 339 341 342 346 340 328 340 -0 349 339 338 338 327 280 287 282 254 232 225 232 226 225 238 224 215 228 239 262 219 184 197 203 203 204 191 204 202 196 208 214 224 210 191 211 221 215 216 221 218 210 215 228 233 233 237 246 253 258 234 225 235 225 185 175 177 201 210 202 181 176 178 166 163 166 167 172 171 167 168 168 168 168
348 347 347 345 344 341 337 341 350 344 336 334 353 350 340 336 335 335 327 283 279 279 262 221 207 234 229 222 229 205 199 226 230 251 226 188 194 200 203 210 195 208 206 199 208 219 230 213 184 202 216 219 217 215 218 217 210 219 228 233 239 243 246 258 260 239 232 230 194 177 179 220 211 205 190 178 183 171 163 170 170 168 166 165 169 170 169 171
347 346 347 344 341 340 341 347 341 336 330 337 349 339 333 332 329 327 319 278 282 276 280 167 177 207 215 211 216 198 203 226 223 242 246 205 196 202 208 210 200 211 206 202 212 221 222 220 208 202 205 215 220 218 214 215 222 218 213 221 237 251 251 254 264 258 225 225 205 183 177 237 213 207 193 174 184 179 167 174 173 166 167 170 173 173 172 172
346 345 346 342 339 342 343 316 322 329 325 331 337 332 329 328 323 321 311 242 278 273 92 75 208 180 181 180 177 188 214 181 194 231 242 218 199 199 212 211 200 210 204 199 218 214 198 210 223 216 205 208 216 221 211 208 224 224 198 204 220 240 253 256 264 266 247 252 231 194 176 185 214 215 199 173 176 176 173 177 175 170 173 176 175 174 174 172
344 343 345 341 336 342 334 305 312 318 311 323 329 328 325 322 317 314 311 288 304 352 52 13 351 349 329 195 172 203 249 145 164 219 226 222 208 191 208 217 211 208 206 213 217 196 189 203 218 223 216 209 208 213 208 208 222 227 212 210 208 218 239 254 261 266 267 279 270 216 179 179 217 227 207 181 173 172 177 181 177 174 175 176 177 175 175 175
343 342 344 338 332 342 337 315 300 292 309 324 328 326 320 314 309 296 226 289 310 3 5 357 352 346 336 316 184 212 255 197 188 200 203 220 218 208 214 214 220 221 214 229 234 203 199 201 207 222 229 217 204 202 204 211 217 217 226 233 220 208 218 237 247 261 280 273 261 242 199 191 216 223 201 190 187 175 176 182 177 176 178 177 178 177 178 179
341 340 343 337 328 335 335 320 298 297 321 330 327 322 317 308 297 216 263 279 335 0 3 2 352 344 340 339 239 220 238 245 279 215 189 212 216 217 216 197 222 238 222 230 239 235 236 210 197 215 231 228 213 196 197 210 212 206 220 236 243 223 207 218 231 249 276 264 251 246 233 229 235 219 197 194 196 174 169 181 179 178 181 179 179 178 178 179
340 340 341 331 321 324 318 311 314 316 326 330 325 321 314 299 199 223 286 320 340 355 3 358 350 342 337 338 324 281 246 241 266 263 210 201 207 213 206 193 213 236 238 229 227 233 242 235 209 204 214 224 233 210 195 203 207 205 209 218 240 253 214 209 207 215 238 248 252 256 260 261 247 227 211 198 190 172 168 177 179 180 184 182 181 179 176 178
339 340 340 325 315 313 291 294 319 320 324 328 325 320 308 303 76 228 298 327 327 354 -0 345 341 337 328 324 315 303 288 241 236 256 249 201 207 209 205 207 190 201 234 234 215 218 230 238 238 218 204 209 226 223 196 197 201 203 204 196 207 226 210 210 197 205 229 236 231 258 273 265 250 244 227 207 189 180 177 178 177 179 182 181 180 178 176 178
338 340 336 321 311 304 288 291 312 320 326 327 318 304 299 313 334 302 327 343 332 343 349 336 332 329 322 318 310 307 306 279 221 235 244 220 216 211 205 212 206 201 221 230 219 217 218 228 236 236 212 198 213 220 192 194 192 194 202 192 189 197 196 206 208 208 226 223 202 226 258 254 257 265 228 211 211 205 189 177 176 177 177 177 176 175 177 179
337 339 335 323 312 303 291 282 303 323 325 321 309 301 302 268 320 349 353 356 332 334 340 336 331 326 324 314 297 317 332 317 313 276 243 222 214 214 204 206 216 221 218 219 230 227 222 219 220 229 218 182 203 220 203 186 188 197 203 194 188 194 189 191 206 201 192 204 200 206 218 220 225 230 207 210 228 242 212 163 170 174 172 173 174 174 178 180
337 340 336 325 310 307 304 288 316 331 325 313 300 314 322 303 337 1 356 347 337 337 335 333 331 324 326 319 309 350 9 333 333 338 292 245 214 208 203 199 211 224 225 220 228 226 233 236 208 215 227 201 198 212 212 191 191 197 194 205 203 185 168 173 206 187 143 114 201 207 218 206 211 222 209 203 208 236 232 152 161 170 168 171 175 175 179 180
339 342 338 322 308 304 320 334 334 327 316 307 302 314 328 310 325 343 345 348 342 334 329 329 334 320 321 331 335 351 356 338 342 350 327 304 261 216 216 199 194 210 224 235 239 230 234 240 204 196 219 227 205 199 209 203 189 177 192 212 194 157 179 214 230 177 154 214 219 217 242 237 237 256 236 207 193 212 222 166 161 172 171 173 177 177 177 177
338 339 325 309 305 293 319 333 326 313 310 304 285 290 282 297 343 344 345 353 339 329 329 327 328 315 315 327 334 340 339 339 350 349 333 322 320 355 326 249 178 206 227 238 245 245 251 247 224 200 206 223 217 200 208 214 204 178 190 196 147 144 206 217 229 182 176 218 209 209 228 212 201 235 241 228 211 206 212 192 172 173 172 173 176 175 176 177
328 320 298 291 298 315 329 326 310 301 303 277 277 298 322 340 356 350 351 352 330 318 327 320 309 312 319 323 329 334 330 334 353 344 332 328 2 29 21 348 351 350 306 286 265 242 262 268 235 218 204 207 214 205 205 217 220 209 176 163 159 192 203 186 212 204 182 215 219 213 221 208 195 201 202 218 224 214 211 206 183 169 170 174 174 175 177 178
326 317 290 293 43 0 334 320 296 293 285 280 293 318 339 349 1 356 348 332 312 307 320 317 312 318 328 328 325 328 326 334 350 338 329 338 343 9 19 5 343 346 340 323 294 238 255 262 246 240 209 188 198 208 200 204 216 219 185 164 182 202 180 173 205 209 180 206 222 219 217 211 212 200 189 202 216 214 209 208 184 167 169 175 175 177 179 176
335 328 274 340 21 354 335 322 288 259 251 273 298 330 346 353 359 354 327 308 306 315 319 315 310 310 321 322 318 323 331 336 338 327 315 334 336 339 1 7 347 336 333 324 314 305 270 235 248 263 227 187 189 206 204 191 195 213 205 181 187 184 166 181 203 207 200 204 212 221 234 236 231 203 189 193 204 207 198 193 177 166 169 175 175 176 177 173
328 323 275 332 344 329 333 338 293 258 233 253 289 339 348 332 322 339 323 315 324 323 316 314 302 297 310 316 315 325 331 324 326 327 311 325 351 350 339 348 344 332 330 329 338 357 338 253 259 265 246 212 197 194 198 191 186 201 211 195 188 180 171 186 207 208 200 214 227 217 253 258 250 236 202 190 193 199 188 178 164 162 169 175 174 173 173 173
323 311 295 322 325 313 316 358 299 303 350 322 318 336 351 326 316 339 338 323 325 311 310 315 307 310 315 305 305 318 326 317 317 320 308 322 356 351 329 337 339 331 329 332 339 344 335 290 266 260 255 254 228 196 186 187 185 195 214 215 194 184 179 182 197 198 188 215 247 250 267 265 261 270 218 184 182 184 179 171 150 159 170 173 172 171 171 174
336 309 304 316 326 324 317 316 314 325 0 331 321 336 347 320 306 328 328 317 325 314 300 303 310 313 310 304 309 318 321 315 312 321 329 336 348 339 329 337 340 333 332 338 342 340 331 305 275 279 274 279 266 213 181 178 183 193 211 217 209 198 186 177 181 174 170 197 218 238 264 267 279 297 255 157 164 161 165 167 149 158 170 170 169 171 172 175
315 303 302 318 341 350 340 309 324 324 332 327 326 336 331 312 312 325 320 317 323 314 304 309 313 307 308 316 313 311 315 314 318 338 342 331 327 331 332 338 341 333 330 344 344 335 324 314 328 322 283 272 283 227 176 175 186 197 205 208 220 215 186 178 190 168 171 203 192 187 243 256 281 321 20 83 131 139 148 161 150 155 167 169 167 170 172 175
310 299 291 324 346 354 336 323 331 323 333 336 334 329 319 315 322 320 322 323 314 307 310 304 299 295 298 306 299 297 310 316 321 343 345 320 316 330 332 335 336 324 321 336 337 327 300 282 296 316 259 232 261 229 190 186 186 194 204 200 212 222 201 181 177 169 193 212 194 179 222 261 295 341 16 47 104 134 154 164 152 155 166 170 169 171 174 177
324 315 323 338 342 340 333 342 343 344 342 335 331 324 318 319 317 320 338 330 306 310 313 301 302 300 296 306 307 305 316 326 328 337 336 320 321 328 327 329 327 321 329 338 337 331 298 269 270 252 243 251 255 263 287 282 203 188 199 200 202 214 220 193 155 179 194 187 204 200 181 213 266 330 1 31 97 126 150 145 112 129 159 168 172 174 176 179
346 315 335 347 326 326 348 351 352 349 326 317 323 320 316 316 315 324 334 318 317 328 319 306 314 311 308 317 316 312 320 327 329 329 326 322 322 319 322 324 321 329 341 342 336 336 321 306 322 305 280 274 273 280 296 300 258 195 193 206 200 201 216 217 172 180 174 151 218 224 160 169 224 200 152 59 109 115 117 116 97 99 146 162 171 177 178 178
9 306 339 359 342 327 336 328 325 317 305 310 322 313 313 319 321 327 326 323 331 339 336 321 313 315 320 319 316 317 321 323 322 325 325 323 326 328 328 326 326 343 349 338 331 342 322 308 341 336 317 303 294 295 299 299 291 229 196 208 207 194 206 217 200 170 164 156 213 209 155 157 204 193 142 113 142 136 124 122 118 109 122 150 166 175 177 175
335 291 332 2 344 300 297 294 295 298 305 320 323 310 317 322 320 325 327 323 322 331 348 329 311 320 324 317 317 314 312 318 319 320 326 323 327 336 331 325 328 346 347 334 329 342 329 320 337 329 314 308 302 296 298 301 304 306 247 220 221 206 198 208 218 195 169 168 192 187 159 159 180 173 158 199 202 142 121 124 117 107 102 120 153 170 173 172
351 319 325 338 314 290 286 286 291 302 318 325 320 326 335 328 326 333 326 311 310 322 334 315 308 316 311 309 319 309 307 326 321 309 317 316 316 328 328 319 318 325 333 333 327 333 335 330 331 326 316 315 314 301 299 300 293 306 309 249 224 217 198 196 213 222 177 170 193 182 151 157 173 158 160 191 172 101 104 124 116 110 111 110 128 155 164 163
271 303 323 325 312 300 294 296 305 312 316 320 323 335 338 329 330 333 320 306 307 315 319 312 312 313 303 301 307 301 309 324 309 299 305 302 301 313 308 296 302 312 320 321 320 328 331 323 325 331 333 328 330 324 303 300 304 305 302 276 217 216 209 189 198 219 202 170 186 179 148 184 196 153 118 106 108 97 99 109 96 91 104 106 112 129 135 134
270 300 326 307 297 298 296 300 306 306 303 310 313 311 311 315 320 321 314 310 317 321 322 313 305 301 298 300 302 308 316 311 295 294 299 290 283 280 271 274 279 284 295 307 311 318 321 322 328 334 331 318 324 325 311 307 322 310 288 304 68 59 283 205 189 207 212 162 168 188 191 199 183 139 121 99 91 98 104 100 90 84 79 82 100 125 134 136